Simultaneous Nadir Overpasses (SNOs) Predictions

Prediction of SNOs between GOES-17 and LANDSAT-8 Satellite Orbit:

Table of predicted SNOs for the next 14.0 days since TLE Epoch: 2/20/2022
Index Date Time (GOES-17) GOES-17 Lat,Lon LANDSAT-8 Lat,Lon Distance(km) Time Diff (sec)
1 02/21/2022 07:16:51 -0.03,-137.18 0.14,-136.47 82.14 80
2 02/23/2022 07:04:38 -0.03,-137.17 0.75,-133.50 416.71 80
3 02/23/2022 19:25:53 0.03,-137.17 0.35,-138.66 168.94 80
4 02/25/2022 19:16:20 0.03,-137.15 -0.26,-135.69 164.50 80
5 02/26/2022 07:37:44 -0.03,-137.13 -0.84,-140.89 427.81 80
6 02/27/2022 19:04:07 0.03,-137.11 -0.88,-132.73 497.36 80
7 02/28/2022 07:22:51 -0.02,-137.09 -0.22,-137.93 95.14 80
8 03/02/2022 07:13:18 -0.02,-137.06 0.41,-134.96 237.53 80
9 03/02/2022 19:31:53 0.01,-137.06 0.69,-140.12 348.69 80
10 03/04/2022 19:19:40 0.02,-137.02 0.06,-137.16 16.04 80
